Location: General Nathan Twining Observatory
(34.5931°N, 106.8201°W)
Time: 13:59:02
(UTC-06:00)

Cosmos 1758 Rocket - Pass Details

Date: 20 September 2017
Orbit: 603 x 635 km, 82.5° (Epoch: 19 October)

Event Time Altitude Azimuth Distance (km) Brightness Sun altitude
Rises 19:37:20 0° 2° (N) 2,931 7.1 -7.2°
Reaches altitude 10° 19:39:42 10° 11° (N) 2,022 6.2 -7.7°
Maximum altitude 19:43:54 38° 79° (E) 969 4.1 -8.5°
Drops below altitude 10° 19:48:04 10° 148° (SSE) 2,013 5.8 -9.4°
Sets 19:50:25 0° 157° (SSE) 2,916 6.7 -9.9°
